ZKOGO NZTG-NZAA

Flight info

Callsign ZKOGO
Flight time 0h 29m
Altitude FL110
Route RUSTR4R DODKU DODKU1A
Aircraft E35L/L-S/N

Departure

Time 2026-05-06 08:51
Airport Tauranga Airport (NZTG)

Arrival

Time 2026-05-06 09:20
Airport Auckland International Airport (NZAA)
Time Latitude Longitude Altitude Speed Heading
2026-05-06 08:47 -37.67131 176.19869 21 ft 0 kts 88°
2026-05-06 08:50 -37.67266 176.18932 21 ft 0 kts 94°
2026-05-06 08:50 -37.67266 176.18933 21 ft 1 kts 94°
2026-05-06 08:50 -37.67281 176.19241 21 ft 73 kts 92°
2026-05-06 08:51 -37.67312 176.20011 81 ft 121 kts 93°
2026-05-06 08:51 -37.67374 176.21158 629 ft 131 kts 93°
2026-05-06 08:51 -37.67420 176.22305 1394 ft 131 kts 91°
2026-05-06 08:51 -37.67468 176.23498 1938 ft 146 kts 91°
2026-05-06 08:52 -37.67493 176.24865 2401 ft 169 kts 86°
2026-05-06 08:52 -37.66904 176.26183 2842 ft 185 kts 46°
2026-05-06 08:52 -37.65676 176.26801 3310 ft 200 kts
2026-05-06 08:52 -37.64327 176.26357 3823 ft 204 kts 332°
2026-05-06 08:53 -37.63246 176.25237 4441 ft 202 kts 320°
2026-05-06 08:53 -37.62410 176.23817 4947 ft 204 kts 301°
2026-05-06 08:53 -37.61805 176.22185 5413 ft 207 kts 297°
2026-05-06 08:53 -37.61199 176.20533 5860 ft 209 kts 297°
2026-05-06 08:54 -37.60587 176.18870 6322 ft 210 kts 298°
2026-05-06 08:54 -37.59972 176.17203 6770 ft 211 kts 297°
2026-05-06 08:54 -37.59362 176.15547 7406 ft 200 kts 297°
2026-05-06 08:54 -37.58799 176.14012 8105 ft 190 kts 297°
2026-05-06 08:55 -37.58245 176.12509 8620 ft 189 kts 297°
2026-05-06 08:55 -37.57690 176.11008 9077 ft 191 kts 297°
2026-05-06 08:55 -37.57131 176.09497 9524 ft 192 kts 298°
2026-05-06 08:55 -37.56564 176.07965 9950 ft 194 kts 297°
2026-05-06 08:56 -37.55989 176.06414 10254 ft 197 kts 297°
2026-05-06 08:56 -37.55413 176.04862 10656 ft 198 kts 297°
2026-05-06 08:56 -37.54823 176.03276 10964 ft 201 kts 297°
2026-05-06 08:56 -37.54230 176.01683 11001 ft 201 kts 297°
2026-05-06 08:57 -37.53640 176.00099 11000 ft 200 kts 297°
2026-05-06 08:57 -37.53046 175.98505 11002 ft 204 kts 297°
2026-05-06 08:57 -37.52786 175.97833 11032 ft 291 kts 298°
2026-05-06 08:57 -37.51827 175.95397 11112 ft 342 kts 297°
2026-05-06 08:58 -37.50766 175.92645 11092 ft 355 kts 297°
2026-05-06 08:58 -37.49696 175.89855 11069 ft 352 kts 297°
2026-05-06 08:58 -37.48709 175.87141 11032 ft 337 kts 293°
2026-05-06 08:58 -37.47971 175.84360 11030 ft 336 kts 292°
2026-05-06 08:59 -37.46999 175.81709 11019 ft 331 kts 297°
2026-05-06 08:59 -37.45914 175.79075 10997 ft 350 kts 299°
2026-05-06 08:59 -37.44791 175.76338 10973 ft 355 kts 296°
2026-05-06 08:59 -37.43907 175.73450 10952 ft 355 kts 290°
2026-05-06 09:00 -37.43259 175.70455 10931 ft 356 kts 285°
2026-05-06 09:00 -37.42753 175.67411 10910 ft 356 kts 283°
2026-05-06 09:00 -37.42277 175.64360 10889 ft 356 kts 283°
2026-05-06 09:00 -37.41769 175.61313 10867 ft 356 kts 283°
2026-05-06 09:01 -37.41226 175.58278 10845 ft 356 kts 284°
2026-05-06 09:01 -37.40663 175.55258 10822 ft 356 kts 284°
2026-05-06 09:01 -37.40094 175.52242 10800 ft 356 kts 285°
2026-05-06 09:01 -37.39526 175.49218 10778 ft 356 kts 284°
2026-05-06 09:02 -37.38958 175.46179 10762 ft 366 kts 284°
2026-05-06 09:02 -37.38362 175.42981 10712 ft 363 kts 284°
2026-05-06 09:02 -37.37798 175.39922 11220 ft 360 kts 284°
2026-05-06 09:02 -37.37234 175.36873 11076 ft 358 kts 284°
2026-05-06 09:03 -37.36671 175.33834 10998 ft 359 kts 285°
2026-05-06 09:03 -37.36119 175.30867 10762 ft 340 kts 285°
2026-05-06 09:03 -37.35602 175.28085 10413 ft 307 kts 285°
2026-05-06 09:03 -37.35132 175.25563 10128 ft 288 kts 285°
2026-05-06 09:04 -37.34681 175.23160 9804 ft 280 kts 286°
2026-05-06 09:04 -37.34236 175.20801 9483 ft 277 kts 286°
2026-05-06 09:04 -37.33793 175.18454 9162 ft 276 kts 285°
2026-05-06 09:04 -37.33354 175.16123 9008 ft 274 kts 286°
2026-05-06 09:05 -37.32918 175.13807 8987 ft 269 kts 286°
2026-05-06 09:05 -37.32496 175.11561 8981 ft 263 kts 286°
2026-05-06 09:05 -37.32076 175.09333 8980 ft 263 kts 286°
2026-05-06 09:05 -37.31655 175.07103 8982 ft 262 kts 286°
2026-05-06 09:06 -37.31235 175.04879 8982 ft 263 kts 286°
2026-05-06 09:06 -37.30813 175.02654 8981 ft 263 kts 286°
2026-05-06 09:06 -37.30390 175.00423 8979 ft 263 kts 286°
2026-05-06 09:06 -37.29968 174.98201 8982 ft 263 kts 286°
2026-05-06 09:07 -37.29545 174.95973 8979 ft 262 kts 286°
2026-05-06 09:07 -37.29122 174.93750 8984 ft 263 kts 286°
2026-05-06 09:07 -37.28710 174.91576 8979 ft 253 kts 286°
2026-05-06 09:07 -37.28304 174.89439 8965 ft 252 kts 286°
2026-05-06 09:08 -37.27898 174.87314 8980 ft 252 kts 286°
2026-05-06 09:08 -37.27497 174.85212 8749 ft 247 kts 286°
2026-05-06 09:08 -37.27097 174.83120 8189 ft 245 kts 287°
2026-05-06 09:08 -37.26625 174.81152 7927 ft 230 kts 294°
2026-05-06 09:09 -37.25900 174.79379 7448 ft 228 kts 301°
2026-05-06 09:09 -37.25121 174.77650 6996 ft 227 kts 302°
2026-05-06 09:09 -37.24348 174.75936 6543 ft 226 kts 302°
2026-05-06 09:09 -37.23581 174.74226 6089 ft 225 kts 302°
2026-05-06 09:10 -37.22819 174.72518 5656 ft 224 kts 302°
2026-05-06 09:10 -37.22061 174.70822 5220 ft 223 kts 302°
2026-05-06 09:10 -37.21310 174.69136 4793 ft 222 kts 302°
2026-05-06 09:10 -37.20558 174.67448 4377 ft 221 kts 303°
2026-05-06 09:11 -37.19817 174.65787 4047 ft 219 kts 303°
2026-05-06 09:11 -37.19095 174.64168 3985 ft 214 kts 303°
2026-05-06 09:11 -37.18378 174.62562 3988 ft 207 kts 303°
2026-05-06 09:11 -37.17680 174.60999 3992 ft 205 kts 303°
2026-05-06 09:12 -37.16984 174.59445 3993 ft 205 kts 303°
2026-05-06 09:12 -37.16252 174.58014 3982 ft 186 kts 311°
2026-05-06 09:12 -37.15337 174.56975 3873 ft 175 kts 331°
2026-05-06 09:12 -37.14264 174.56492 3748 ft 158 kts 344°
2026-05-06 09:13 -37.13254 174.56035 3415 ft 152 kts 342°
2026-05-06 09:13 -37.12263 174.55593 3021 ft 151 kts 343°
2026-05-06 09:13 -37.11272 174.55157 2987 ft 151 kts 343°
2026-05-06 09:13 -37.10277 174.54737 2991 ft 151 kts 345°
2026-05-06 09:14 -37.09289 174.54949 2911 ft 141 kts 27°
2026-05-06 09:14 -37.08624 174.55764 3033 ft 132 kts 41°
2026-05-06 09:14 -37.07932 174.56512 2991 ft 131 kts 38°
2026-05-06 09:14 -37.07288 174.57299 2996 ft 123 kts 41°
2026-05-06 09:15 -37.06837 174.58173 2974 ft 125 kts 57°
2026-05-06 09:15 -37.06537 174.59255 2954 ft 137 kts 66°
2026-05-06 09:15 -37.06218 174.60374 2779 ft 138 kts 67°
2026-05-06 09:15 -37.05864 174.61504 2611 ft 139 kts 68°
2026-05-06 09:16 -37.05544 174.62638 2436 ft 138 kts 71°
2026-05-06 09:16 -37.05247 174.63778 2248 ft 138 kts 72°
2026-05-06 09:16 -37.04943 174.64915 2062 ft 138 kts 71°
2026-05-06 09:16 -37.04644 174.66034 1884 ft 129 kts 71°
2026-05-06 09:17 -37.04367 174.67060 1700 ft 123 kts 71°
2026-05-06 09:17 -37.04096 174.68061 1544 ft 121 kts 71°
2026-05-06 09:17 -37.03827 174.69056 1384 ft 121 kts 71°
2026-05-06 09:17 -37.03557 174.70043 1232 ft 118 kts 71°
2026-05-06 09:18 -37.03295 174.70999 1079 ft 116 kts 71°
2026-05-06 09:18 -37.03036 174.71948 928 ft 116 kts 71°
2026-05-06 09:18 -37.02776 174.72895 789 ft 115 kts 71°
2026-05-06 09:18 -37.02517 174.73837 641 ft 115 kts 71°
2026-05-06 09:19 -37.02257 174.74779 491 ft 114 kts 71°
2026-05-06 09:19 -37.02000 174.75715 348 ft 114 kts 71°
2026-05-06 09:19 -37.01742 174.76651 205 ft 114 kts 71°
2026-05-06 09:19 -37.01484 174.77577 64 ft 107 kts 71°
2026-05-06 09:20 -37.01287 174.78311 31 ft 72 kts 68°
2026-05-06 09:20 -37.01130 174.78880 31 ft 66 kts 71°
2026-05-06 09:20 -37.00999 174.79336 31 ft 49 kts 69°
2026-05-06 09:20 -37.00871 174.79653 31 ft 28 kts 50°